Regional Weather Roundup
Issued by NWS State College, PA

Home | Current Version | Previous Version | Text Only | Print | Product List | Glossary On
Versions: 1 2 3 4 5 6 7 8 9 10 11 12 13 14 15 16 17 18 19 20 21 22 23 24 25 26 27 28 29 30 31 32 33 34 35 36 37 38 39 40 41 42 43 44 45 46 47 48 49 50
000
ASUS41 KCTP 190810
RWRCTP

REGIONAL WEATHER ROUNDUP
NATIONAL WEATHER SERVICE STATE COLLEGE PA
300 AM EST FRI DEC 19 2014

Note: "fair" indicates few or no clouds below 12,000 feet with no
significant weather and/or obstructions to visibility.

* = STATION THAT DOES NOT REPORT PRECIPITATION /E.G. RAIN...SNOW...ETC/
    THUNDER OR FOG.

PAZ002>004-007>009-013>016-020>023-029>032-190900-
WESTERN PENNSYLVANIA

CITY           SKY/WX    TMP DP  RH WIND       PRES   REMARKS
ERIE           CLOUDY    31  22  69 W15G23    30.13R
MEADVILLE      CLOUDY    28  26  92 NW6       30.09R FOG
FRANKLIN*      CLOUDY    27  25  93 W6        30.10S
NEW CASTLE       N/A     28  27  96 W5        30.15R FOG
BEAVER COUNTY  NOT AVBL
BUTLER*        CLOUDY    27  25  93 W7        30.14S
PITTSBURGH INT CLOUDY    27  24  89 W7        30.14S FOG
PITTSBURGH     CLOUDY    27  21  78 W8        30.13S
INDIANA*       CLOUDY    27  27 100 W13       30.13S FOG
LATROBE        CLOUDY    27  25  93 SW10      30.15S
WASHINGTON CO* NOT AVBL
$$

PAZ004>006-010>012-017>019-024>028-033>037-041-042-045-046-049>053-190900-
CENTRAL PENNSYLVANIA

CITY           SKY/WX    TMP DP  RH WIND       PRES   REMARKS
BRADFORD       CLOUDY    26  22  84 NW10      30.00S
DUBOIS         CLOUDY    26  25  96 W12       30.03S
CLEARFIELD     CLOUDY    28  24  85 W6        30.05S
JOHNSTOWN      CLOUDY    23  21  92 W12       30.03S FOG     WCI  12
ALTOONA        CLOUDY    28  23  81 W12G21    30.07R
STATE COLLEGE  CLOUDY    30  24  79 W13       30.05S
WILLIAMSPORT   CLOUDY    34  26  72 W9        30.03S
SELINSGROVE    CLOUDY    35  24  64 NW7       30.06R
FT INDIANTOWN  CLOUDY    34  24  66 W7        30.05R
CAPITAL CITY   CLOUDY    34  24  67 W10       30.07S
HARRISBURG     CLOUDY    34  25  69 W13       30.06S
YORK           CLOUDY    34  24  67 W8        30.07S
$$

PAZ038>040-043-044-047-048-054-055-060>062-067>071-190900-
EASTERN PENNSYLVANIA

CITY           SKY/WX    TMP DP  RH WIND       PRES   REMARKS
SCRANTON       CLOUDY    34  24  67 NW12      29.98S
MOUNT POCONO   CLOUDY    29  21  72 NW10G21   29.91R
ALLENTOWN      CLOUDY    36  24  62 NW6       30.01R
QUAKERTOWN*    CLOUDY    36  25  64 NW5       30.01S
READING        CLOUDY    35  24  64 W13G20    30.03R
LANCASTER      CLOUDY    34  24  67 W9        30.05R
COATESVILLE    CLOUDY    34  27  75 NW14      30.04R
POTTSTOWN      CLOUDY    34  25  69 W7        30.04R
BLUE BELL      CLOUDY    36  28  75 W5        30.01S
DOYLESTOWN     CLOUDY    34  26  72 W7        30.00R
WILLOW GROVE   NOT AVBL
NORTH PHILA    CLOUDY    38  24  57 W10       30.04S
PHILADELPHIA   MOCLDY    37  25  61 W9        30.05R
$$


USA.gov is the U.S. government's official web portal to all federal, state and local government web resources and services.